Flag for U.S.A. Weather past 2 weeks in Providence, Rhode Island, U.S.A.

Now
77 °F

Cloudy.


Feels Like: 79 °F
Forecast: 64 / 77 °F
Wind: 8 mph from Northeast

Location: Green State Airport

Current Time: Jul 24, 2014 at 4:21:14 PM

Latest Report: Jul 24, 2014 at 3:51 PM


Visibility: 10 mi

Pressure: 29.82 "Hg

Humidity: 66%

Dew point: 65 °F

Location of ProvidenceLocation

Historic Weather in Providence — Graph

°F

Providence temperature yesterday

Maximum temperature yesterday: 87 °F (at 12:51 PM)
Minimum temperature yesterday: 70 °F (at 4:51 AM)
Average temperature yesterday: 78 °F

Past Weeks' High & Low Weather Summary

 TemperatureHumidityPressure
High87 °F (Jul 23, 12:51 PM)97% (Jul 14, 10:51 PM)30.27 "Hg (Jul 14, 10:51 PM)
Low60 °F (Jul 12, 5:51 AM)40% (Jul 12, 12:51 PM)29.76 "Hg (Jul 24, 3:51 AM)
Average73 °F73%30.04 "Hg
* Reported Jul 9 2:51 PM — Jul 24 2:51 PM, Providence, Weather by CustomWeather, © 2014

Note: Actual official high and low records may vary slightly from our data, if they occured in-between our weather recording intervals... More about our weather records

Advertising

Providence weather history for previous 24 hours

 ConditionsComfort  
Time TempWeatherWind HumidityBarometerVisibility
2:51 PM
Jul 24
77 °FBroken clouds.5 mph64%29.83 "Hg10 mi
1:51 PM78 °FPartly sunny.9 mph62%29.82 "Hg10 mi
1:02 PM75 °FBroken clouds.9 mph71%29.83 "Hg10 mi
12:51 PM73 °FBroken clouds.12 mph76%29.83 "Hg10 mi
11:51 AM77 °FBroken clouds.12 mph66%29.82 "Hg10 mi
10:51 AM78 °FMostly cloudy.9 mph62%29.82 "Hg10 mi
9:51 AM77 °FBroken clouds.9 mph69%29.80 "Hg10 mi
8:51 AM77 °FBroken clouds.9 mph71%29.80 "Hg10 mi
7:51 AM73 °FBroken clouds.9 mph84%29.79 "Hg10 mi
6:51 AM72 °FBroken clouds.6 mph87%29.79 "Hg10 mi
5:51 AM71 °FPassing clouds.5 mph90%29.78 "Hg10 mi
4:51 AM71 °FRain. Fog.6 mph87%29.78 "Hg4 mi
3:51 AM71 °FOvercast.3 mph87%29.76 "Hg10 mi
2:51 AM71 °FClear.7 mph84%29.76 "Hg10 mi
1:51 AM71 °FClear.No wind84%29.77 "Hg10 mi
12:51 AM72 °FClear.8 mph81%29.77 "Hg10 mi
11:51 PM
Jul 23
75 °FPassing clouds.7 mph71%29.79 "Hg10 mi
10:51 PM75 °FMostly cloudy.12 mph71%29.83 "Hg10 mi
9:51 PM75 °FPartly cloudy.9 mph69%29.83 "Hg10 mi
8:51 PM75 °FPartly sunny.10 mph74%29.82 "Hg10 mi
7:51 PM76 °FPartly sunny.14 mph74%29.81 "Hg10 mi
6:51 PM79 °FScattered clouds.17 mph69%29.80 "Hg10 mi
5:51 PM82 °FScattered clouds.15 mph63%29.79 "Hg10 mi
4:51 PM84 °FScattered clouds.17 mph61%29.81 "Hg10 mi
Weather by CustomWeather, © 2014

See weather overviewHow to use our weather pages